DW9125 Weather Reports


time (UTC)temp
C
wind
direction
speed
KPH
gust
KPH
rain 1hr
cm
rain 24hr
cm
rain mn
cm
humidity
%
barometer
mb
20260510100034 10 360 0.0 1.6 0.00 0.00 0.00 91 1006.7
20260510094528 10 360 0.0 1.6 0.00 0.00 0.00 90 1006.4
20260510093036 11 360 0.0 1.6 0.00 0.00 0.00 90 1006.3
20260510091522 11 360 0.0 1.6 0.00 0.00 0.00 90 1006.1
20260510090021 11 360 0.0 1.6 0.00 0.00 0.00 90 1006.0
20260510084528 11 360 0.0 1.6 0.00 0.00 0.00 90 1005.8
20260510083020 11 360 0.0 0.0 0.00 0.00 0.00 89 1005.6
20260510081525 11 360 0.0 1.6 0.00 0.00 0.00 89 1006.0
20260510080020 11 360 0.0 1.6 0.00 0.00 0.00 89 1005.9
20260510074519 11 360 0.0 1.6 0.00 0.00 0.00 88 1005.8
20260510073021 11 360 0.0 3.2 0.00 0.00 0.00 88 1005.9
20260510071523 11 360 0.0 4.8 0.00 0.00 0.00 88 1005.5
20260510070015 11 360 0.0 1.6 0.00 0.00 0.00 88 1005.5
20260510064514 11 360 0.0 1.6 0.00 0.00 0.00 88 1004.9
20260510063016 11 360 0.0 1.6 0.00 0.00 0.00 88 1005.1
20260510061526 11 360 0.0 3.2 0.00 0.00 0.00 86 1005.4
20260510060013 11 360 0.0 1.6 0.00 0.00 0.00 86 1005.2
20260510054512 11 360 0.0 1.6 0.00 0.00 0.00 86 1005.3
20260510053011 11 360 0.0 1.6 0.00 0.00 0.00 86 1005.6
20260510051510 11 360 0.0 1.6 0.00 0.00 0.00 85 1005.6
20260510050006 11 360 0.0 1.6 0.00 0.00 0.00 87 1005.5
20260510044504 11 360 0.0 3.2 0.00 0.00 0.00 88 1005.2
20260510043008 11 360 0.0 0.0 0.00 0.00 0.00 87 1005.5
20260510041502 10 360 0.0 4.8 0.00 0.00 0.00 88 1005.4
20260510034605 10 360 0.0 3.2 0.00 0.00 0.00 88 1005.1
20260510033113 10 360 0.0 1.6 0.00 0.00 0.00 88 1005.5
20260510031558 10 360 0.0 4.8 0.00 0.00 0.00 88 1005.6
20260510030052 10 360 0.0 1.6 0.00 0.00 0.00 89 1005.7
20260510024556 10 360 0.0 1.6 0.00 0.00 0.00 88 1006.1
20260510023052 10 360 0.0 3.2 0.00 0.00 0.00 87 1006.4
20260510021551 10 360 0.0 3.2 0.00 0.00 0.00 88 1006.5
20260510020050 10 360 0.0 1.6 0.00 0.00 0.00 87 1006.2
20260510014547 10 360 0.0 1.6 0.00 0.00 0.00 88 1006.1
20260510013052 10 360 0.0 0.0 0.00 0.00 0.00 86 1006.2
20260510011553 11 360 0.0 3.2 0.00 0.00 0.00 84 1006.4
20260510010046 11 360 0.0 3.2 0.00 0.00 0.00 85 1006.2
20260510004549 11 360 0.0 4.8 0.00 0.00 0.00 84 1006.4
20260510003103 11 360 0.0 3.2 0.00 0.00 0.00 85 1006.3
20260510001544 11 360 0.0 6.4 0.00 0.00 0.00 84 1006.3
20260510000047 11 360 0.0 3.2 0.00 0.00 0.00 85 1006.1
20260509234558 11 360 0.0 4.8 0.00 0.00 0.00 83 1006.3
20260509233043 11 360 0.0 3.2 0.00 0.00 0.00 82 1006.4
20260509231551 11 360 0.0 4.8 0.00 0.00 0.00 81 1006.4
20260509230043 11 360 0.0 4.8 0.00 0.00 0.00 81 1006.4
20260509224542 11 360 0.0 6.4 0.00 0.00 0.00 80 1006.4
20260509223037 12 360 0.0 6.4 0.00 0.00 0.00 80 1006.6
20260509221539 12 360 0.0 6.4 0.00 0.00 0.00 79 1006.5
20260509220037 12 360 0.0 3.2 0.00 0.00 0.00 80 1006.6
20260509214536 12 360 0.0 6.4 0.00 0.00 0.00 79 1006.6
20260509213040 12 360 0.0 4.8 0.00 0.00 0.00 77 1006.6
20260509211537 12 360 0.0 4.8 0.00 0.00 0.00 76 1006.7
20260509210030 12 360 0.0 24.1 0.00 0.00 0.00 77 1006.9
20260509204530 13 360 0.0 4.8 0.00 0.00 0.00 73 1007.1
20260509203034 13 360 0.0 3.2 0.00 0.00 0.00 71 1007.1
20260509201528 13 360 0.0 1.6 0.00 0.00 0.00 71 1007.2
20260509200026 13 360 0.0 1.6 0.00 0.00 0.00 72 1007.2
20260509194532 13 360 0.0 4.8 0.00 0.00 0.00 67 1007.2
20260509193024 13 360 0.0 1.6 0.00 0.00 0.00 66 1007.2
20260509191526 13 360 0.0 1.6 0.00 0.00 0.00 67 1007.2
20260509190021 13 360 0.0 3.2 0.00 0.00 0.00 67 1007.5
20260509184520 13 360 0.0 3.2 0.00 0.00 0.00 66 1007.4
20260509183023 13 360 0.0 3.2 0.00 0.00 0.00 64 1007.7
20260509181515 13 360 0.0 3.2 0.00 0.00 0.00 61 1007.9
20260509180013 13 360 0.0 3.2 0.00 0.00 0.00 62 1008.1
20260509174511 13 360 0.0 1.6 0.00 0.00 0.00 64 1008.3
20260509173010 13 360 0.0 1.6 0.00 0.00 0.00 59 1008.4
20260509171509 13 360 0.0 1.6 0.00 0.00 0.00 59 1008.5
20260509170007 13 360 0.0 1.6 0.00 0.00 0.00 59 1008.6
20260509164509 14 360 0.0 0.0 0.00 0.00 0.00 59 1008.8
20260509163002 13 360 0.0 4.8 0.00 0.00 0.00 57 1008.9
20260509161558 13 360 0.0 3.2 0.00 0.00 0.00 56 1009.1
20260509160058 13 360 0.0 0.0 0.00 0.00 0.00 57 1009.5
20260509154556 13 360 0.0 1.6 0.00 0.00 0.00 59 1009.8
20260509153048 12 360 0.0 3.2 0.00 0.00 0.00 60 1010.0
20260509151546 12 360 0.0 4.8 0.00 0.00 0.00 59 1010.3
20260509150043 12 360 0.0 3.2 0.00 0.00 0.00 58 1010.3
20260509144542 12 360 0.0 4.8 0.00 0.00 0.00 61 1010.3
20260509143038 12 360 0.0 3.2 0.00 0.00 0.00 58 1010.5
20260509141537 12 360 0.0 4.8 0.00 0.00 0.00 58 1010.6
20260509140033 11 360 0.0 4.8 0.00 0.00 0.00 64 1010.6
20260509134529 11 360 0.0 3.2 0.00 0.00 0.00 64 1010.5
20260509133027 10 360 0.0 6.4 0.00 0.00 0.00 63 1010.7
20260509131520 10 360 0.0 3.2 0.00 0.00 0.00 68 1010.9
20260509130016 9 360 0.0 6.4 0.00 0.00 0.00 68 1011.0
20260509124514 8 360 0.0 4.8 0.00 0.00 0.00 72 1011.2
20260509123008 8 360 0.0 6.4 0.00 0.00 0.00 70 1011.3
20260509121505 8 360 0.0 4.8 0.00 0.00 0.00 73 1011.3
20260509120002 8 360 0.0 4.8 0.00 0.00 0.00 74 1011.4
20260509114604 7 360 0.0 4.8 0.00 0.00 0.00 74 1011.4
20260509113057 7 360 0.0 3.2 0.00 0.00 0.00 75 1011.4
20260509111553 7 360 0.0 4.8 0.00 0.00 0.00 77 1011.4
20260509110050 7 360 0.0 4.8 0.00 0.00 0.00 77 1011.3
20260509104548 6 360 0.0 4.8 0.00 0.00 0.00 78 1011.2
20260509103044 6 360 0.0 4.8 0.00 0.00 0.00 77 1011.1
20260509101551 6 360 0.0 3.2 0.00 0.00 0.00 77 1011.0